Randolph AFB, TX

12:29 PM CDT on June 26, 2017 (GMT -0500)
Randolph Air Force Base

Weather History for KRND - December, 2012

Change the Weather History Date:

Tuesday, December 4, 2012

  Actual Average Record
Temperature  
Mean Temperature 67 °F -  
Max Temperature 76 °F 63 °F 78 °F (2010)
Min Temperature 55 °F 45 °F 26 °F (2006)
Cooling Degree Days 2    
Growing Degree Days 17 (Base 50)    
Moisture  
Dew Point 61 °F    
Average Humidity 86    
Maximum Humidity 100    
Minimum Humidity 33    
Precipitation  
Precipitation 0.01 in - - ()
Sea Level Pressure  
Sea Level Pressure 30.11 in    
Wind  
Wind Speed 3 mph (North)    
Max Wind Speed 12 mph    
Max Gust Speed 18 mph    
Visibility 8 miles    
Events Rain    
Averages and records for this station are not official NWS values.
T = Trace of Precipitation, MM = Missing Value Source: NWS Daily Summary

Daily Weather History Graph

Daily Weather History Graph

Search for Another Location

Airport or City:

Trip Planner

Search our weather history database for the weather conditions in past years. The results will help you decide how hot, cold, wet, or windy it might be!

Date:

Astronomy

Dec. 04, 2012 Rise Set
Actual Time 7:13 AM CST 5:33 PM CST
Civil Twilight 6:47 AM CST 5:59 PM CST
Nautical Twilight 6:17 AM CST 6:29 PM CST
Astronomical Twilight 5:48 AM CST 6:58 PM CST
Moon 11:05 PM CST (12/4) 11:23 AM CST (12/4)
Length of Visible Light 11h 12m
Length of Day
10h 20m
Waning Gibbous, 69% of the Moon is Illuminated
Dec 4
Waning Gibbous
Dec 6
Last Quarter
Dec 13
New
Dec 19
First Quarter
Dec 28
Full

Hourly Weather History & Observations

Time (CST) Temp. Dew Point Humidity Pressure Visibility Wind Dir Wind Speed Gust Speed Precip Events Conditions
12:55 AM 61.3 °F 61.0 °F 99% 30.03 in 10.0 mi Calm Calm - N/A   Clear
1:55 AM 60.3 °F 59.9 °F 99% 30.03 in 10.0 mi Calm Calm - N/A   Clear
2:37 AM 60.8 °F 60.8 °F 100% 30.03 in 10.0 mi Calm Calm - N/A   Mostly Cloudy
2:55 AM 60.6 °F 60.6 °F 100% 30.02 in 10.0 mi South 4.6 mph - N/A   Mostly Cloudy
3:05 AM 60.8 °F 60.8 °F 100% 30.03 in 10.0 mi South 5.8 mph - N/A   Scattered Clouds
3:55 AM 63.1 °F 63.1 °F 100% 30.02 in 10.0 mi Calm Calm - N/A   Partly Cloudy
4:08 AM 64.4 °F 64.4 °F 100% 30.02 in 10.0 mi Calm Calm - N/A   Mostly Cloudy
4:25 AM 64.4 °F 64.4 °F 100% 30.02 in 10.0 mi North 4.6 mph - N/A   Overcast
4:44 AM 64.4 °F 64.4 °F 100% 30.02 in 10.0 mi Calm Calm - N/A   Overcast
4:55 AM 64.0 °F 64.0 °F 100% 30.02 in 10.0 mi Calm Calm - N/A   Overcast
5:25 AM 66.2 °F 66.2 °F 100% 30.02 in 10.0 mi South 4.6 mph - N/A   Overcast
5:53 AM 66.2 °F 66.2 °F 100% 30.04 in 10.0 mi South 4.6 mph - N/A   Overcast
5:55 AM 66.6 °F 66.6 °F 100% 30.04 in 10.0 mi South 5.8 mph - N/A   Overcast
6:21 AM 66.2 °F 66.2 °F 100% 30.04 in 10.0 mi South 3.5 mph - N/A   Overcast
6:55 AM 67.1 °F 66.9 °F 99% 30.07 in 10.0 mi Calm Calm - N/A   Overcast
6:59 AM 68.0 °F 66.2 °F 94% 30.08 in 10.0 mi Calm Calm - N/A   Overcast
7:55 AM 68.0 °F 68.0 °F 100% 30.11 in 4.0 mi WSW 4.6 mph - N/A   Overcast
8:04 AM 68.0 °F 68.0 °F 100% 30.12 in 8.0 mi West 3.5 mph - N/A   Overcast
8:30 AM 68.0 °F 68.0 °F 100% 30.12 in 1.5 mi Calm Calm - N/A   Overcast
8:43 AM 68.0 °F 68.0 °F 100% 30.14 in 1.0 mi SW 2.3 mph - N/A   Overcast
8:55 AM 67.8 °F 67.8 °F 100% 30.13 in 1.0 mi Calm Calm - N/A   Overcast
9:17 AM 68.0 °F 68.0 °F 100% 30.14 in 2.0 mi Calm Calm - N/A   Overcast
9:43 AM 68.0 °F 68.0 °F 100% 30.15 in 2.5 mi NNW 4.6 mph - N/A   Overcast
9:55 AM 68.0 °F 68.0 °F 100% 30.16 in 3.0 mi NNE 3.5 mph - N/A   Overcast
10:11 AM 68.0 °F 68.0 °F 100% 30.15 in 4.0 mi NE 3.5 mph - N/A   Overcast
10:24 AM 69.8 °F 68.0 °F 94% 30.16 in 6.0 mi North 3.5 mph - N/A   Overcast
10:55 AM 69.6 °F 68.4 °F 96% 30.16 in 10.0 mi North 5.8 mph - N/A   Overcast
11:50 AM 69.8 °F 68.0 °F 94% 30.15 in 10.0 mi NNE 3.5 mph - N/A   Light Drizzle
11:55 AM 70.2 °F 67.3 °F 91% 30.15 in 10.0 mi NNW 11.5 mph - 0.00 in   Light Drizzle
12:02 PM 69.8 °F 66.2 °F 88% 30.14 in 10.0 mi North 4.6 mph - N/A   Overcast
12:11 PM 69.8 °F 66.2 °F 88% 30.14 in 10.0 mi NNE 4.6 mph - N/A   Mostly Cloudy
12:36 PM 71.6 °F 66.2 °F 83% 30.14 in 6.0 mi ENE 4.6 mph - N/A Rain Light Rain
12:55 PM 69.6 °F 66.2 °F 89% 30.13 in 10.0 mi North 8.1 mph 18.4 mph 0.01 in   Light Drizzle
1:01 PM 69.8 °F 66.2 °F 88% 30.12 in 10.0 mi NNE 9.2 mph - N/A   Overcast
1:46 PM 68.0 °F 60.8 °F 78% 30.12 in 10.0 mi North 10.4 mph - N/A   Overcast
1:55 PM 69.3 °F 57.7 °F 67% 30.11 in 10.0 mi North 9.2 mph - 0.00 in   Overcast
2:04 PM 69.8 °F 57.2 °F 64% 30.11 in 10.0 mi North 9.2 mph - N/A   Overcast
2:16 PM 71.6 °F 57.2 °F 60% 30.11 in 10.0 mi NNE 6.9 mph - N/A   Mostly Cloudy
2:55 PM 75.0 °F 57.7 °F 55% 30.09 in 10.0 mi North 8.1 mph - N/A   Partly Cloudy
3:55 PM 76.6 °F 55.8 °F 48% 30.09 in 10.0 mi North 9.2 mph - N/A   Partly Cloudy
4:55 PM 74.5 °F 43.7 °F 33% 30.11 in 10.0 mi North 10.4 mph - N/A   Clear
5:55 PM 69.4 °F 44.4 °F 41% 30.13 in 10.0 mi North 5.8 mph - N/A   Clear
6:55 PM 63.0 °F 46.0 °F 54% 30.16 in 10.0 mi Variable 4.6 mph - N/A   Clear
7:55 PM 61.3 °F 45.7 °F 56% 30.18 in 10.0 mi North 4.6 mph - N/A   Clear
8:55 PM 63.1 °F 46.0 °F 54% 30.19 in 10.0 mi North 6.9 mph - N/A   Clear
9:55 PM 59.5 °F 46.8 °F 63% 30.20 in 10.0 mi North 6.9 mph - N/A   Clear
10:55 PM 58.3 °F 46.4 °F 65% 30.21 in 10.0 mi North 6.9 mph - N/A   Clear
11:55 PM 55.8 °F 46.4 °F 71% 30.20 in 10.0 mi North 9.2 mph - N/A   Clear